EW5857 Weather Reports


Display with metric or nautical units.
time (UTC)temp
F
wind
direction
speed
MPH
gust
MPH
rain 1hr
in
rain 24hr
in
rain mn
in
humidity
%
barometer
mb
20181210002706 40 332 3.0 8.0 0.00 0.26 0.00 90 1016.7
20181210002207 40 333 3.0 7.0 0.00 0.26 0.00 91 1016.6
20181210001707 40 335 2.0 6.0 0.00 0.26 0.00 90 1016.6
20181210001206 40 312 2.0 7.0 0.00 0.26 0.00 90 1016.7
20181210000706 40 320 2.0 7.0 0.00 0.26 0.00 90 1016.7
20181210000207 40 298 2.0 7.0 0.00 0.26 0.00 90 1016.5
20181209235706 40 300 1.0 6.0 0.01 0.26 0.00 90 1016.5
20181209235211 40 336 1.0 5.0 0.02 0.26 0.00 90 1016.4
20181209234706 40 230 1.0 4.0 0.02 0.26 0.00 90 1016.4
20181209234208 40 262 1.0 3.0 0.02 0.27 0.00 90 1016.3
20181209233707 40 200 1.0 6.0 0.02 0.27 0.00 90 1016.2
20181209233207 41 288 2.0 6.0 0.02 0.27 0.00 90 1016.1
20181209232708 41 301 2.0 8.0 0.02 0.27 0.00 90 1016.0
20181209232209 41 329 2.0 8.0 0.02 0.27 0.00 90 1016.0
20181209231709 41 277 3.0 8.0 0.02 0.28 0.00 89 1016.0
20181209231207 41 293 3.0 16.0 0.02 0.28 0.00 89 1016.0
20181209230706 42 323 4.0 19.0 0.02 0.28 0.00 89 1015.9
20181209230207 42 290 6.0 19.0 0.02 0.29 0.29 89 1015.7
20181209225707 42 306 5.0 19.0 0.01 0.32 0.28 89 1015.9
20181209225207 42 271 2.0 6.0 0.01 0.34 0.28 88 1015.8
20181209224705 42 321 1.0 5.0 0.01 0.35 0.28 88 1015.4
20181209224207 42 252 1.0 5.0 0.01 0.35 0.28 88 1015.3
20181209223706 42 298 2.0 8.0 0.01 0.35 0.28 88 1015.2
20181209223207 42 314 2.0 8.0 0.00 0.34 0.27 87 1015.2
20181209222706 42 257 3.0 12.0 0.00 0.34 0.27 87 1015.1
20181209222209 43 297 4.0 12.0 0.00 0.34 0.27 87 1015.1
20181209221707 43 312 4.0 12.0 0.00 0.34 0.27 87 1015.1
20181209221206 43 302 4.0 9.0 0.00 0.35 0.27 87 1015.1
20181209220706 43 273 3.0 10.0 0.00 0.35 0.27 87 1014.9
20181209220207 43 306 3.0 11.0 0.00 0.35 0.27 87 1014.8
20181209215706 43 9 3.0 11.0 0.00 0.36 0.27 87 1014.6
20181209215210 43 336 3.0 11.0 0.00 0.38 0.27 87 1014.5
20181209214706 43 355 3.0 10.0 0.00 0.38 0.27 87 1014.5
20181209214207 43 298 3.0 13.0 0.00 0.39 0.27 87 1014.5
20181209213707 43 284 4.0 13.0 0.00 0.39 0.27 87 1014.5
20181209213207 43 295 3.0 10.0 0.00 0.39 0.27 87 1014.3
20181209212706 42 309 2.0 6.0 0.00 0.39 0.27 87 1014.3
20181209212208 43 217 2.0 17.0 0.00 0.39 0.27 87 1014.1
20181209211706 43 281 3.0 17.0 0.00 0.39 0.27 86 1014.0
20181209211206 43 311 3.0 17.0 0.00 0.39 0.27 86 1013.8
20181209210706 43 333 3.0 14.0 0.00 0.39 0.27 87 1013.8
20181209210208 43 187 5.0 14.0 0.00 0.39 0.27 87 1013.7
20181209205707 43 339 5.0 17.0 0.00 0.39 0.27 86 1013.7
20181209205206 42 311 5.0 17.0 0.00 0.39 0.27 87 1013.6
20181209204710 42 288 5.0 16.0 0.00 0.39 0.27 87 1013.5
20181209204207 42 322 4.0 16.0 0.00 0.39 0.27 88 1013.6
20181209203706 42 30 3.0 16.0 0.00 0.39 0.27 89 1013.4
20181209203209 42 277 2.0 10.0 0.00 0.39 0.27 89 1013.4
20181209202706 42 355 3.0 10.0 0.00 0.39 0.27 89 1013.2
20181209202206 42 302 3.0 8.0 0.00 0.39 0.27 89 1013.1
20181209201706 42 336 2.0 8.0 0.00 0.39 0.27 89 1013.0
20181209201206 42 226 2.0 8.0 0.00 0.39 0.27 89 1013.0
20181209200707 42 318 2.0 9.0 0.00 0.39 0.27 89 1012.9
20181209200207 42 273 2.0 9.0 0.00 0.39 0.27 89 1012.8
20181209195706 42 320 3.0 12.0 0.00 0.39 0.27 89 1012.6
20181209195207 42 180 3.0 12.0 0.00 0.39 0.27 89 1012.7
20181209194707 42 284 3.0 10.0 0.00 0.39 0.27 89 1012.6
20181209194208 42 68 2.0 10.0 0.00 0.39 0.27 89 1012.4
20181209193706 43 180 2.0 9.0 0.01 0.39 0.27 89 1012.6
20181209193210 43 238 3.0 9.0 0.01 0.39 0.27 89 1012.4
20181209192706 43 316 2.0 4.0 0.01 0.39 0.27 90 1012.1
20181209192207 43 257 1.0 12.0 0.01 0.39 0.27 90 1012.1
20181209191706 43 286 3.0 18.0 0.01 0.39 0.27 89 1012.1
20181209191209 43 288 6.0 18.0 0.01 0.39 0.27 89 1012.0
20181209190711 43 273 6.0 18.0 0.01 0.39 0.27 89 1012.0
20181209190207 43 330 5.0 14.0 0.01 0.39 0.27 89 1012.1
20181209185709 43 342 3.0 16.0 0.01 0.39 0.27 89 1012.1
20181209185206 43 290 4.0 19.0 0.01 0.39 0.27 89 1011.6
20181209184708 43 333 6.0 19.0 0.01 0.39 0.27 89 1011.5
20181209184207 44 300 6.0 19.0 0.01 0.39 0.27 90 1011.5
20181209183706 43 226 3.0 6.0 0.00 0.39 0.26 90 1011.6
20181209183209 43 182 1.0 5.0 0.00 0.39 0.26 90 1011.1
20181209182706 43 249 1.0 3.0 0.00 0.39 0.26 89 1011.0
20181209182207 43 267 1.0 10.0 0.00 0.39 0.26 89 1010.9
20181209181706 43 327 2.0 10.0 0.00 0.44 0.26 89 1010.8
20181209181206 43 303 2.0 8.0 0.00 0.46 0.26 89 1010.7
20181209180708 44 234 2.0 10.0 0.01 0.46 0.26 89 1010.6
20181209180207 44 289 2.0 10.0 0.01 0.47 0.26 88 1010.4
20181209175711 44 297 2.0 10.0 0.01 0.49 0.26 88 1010.2
20181209175206 44 288 2.0 8.0 0.01 0.50 0.26 88 1010.1
20181209174708 44 277 2.0 9.0 0.01 0.50 0.26 88 1010.0
20181209174206 44 303 3.0 9.0 0.01 0.50 0.26 88 1009.9
20181209173706 44 260 3.0 10.0 0.01 0.51 0.26 88 1009.6
20181209173206 44 290 3.0 10.0 0.01 0.52 0.26 88 1009.6
20181209172707 44 39 3.0 9.0 0.01 0.54 0.26 88 1009.3
20181209172209 44 192 2.0 11.0 0.01 0.54 0.26 89 1009.2
20181209171708 44 346 3.0 11.0 0.01 0.54 0.26 89 1009.1
20181209171208 44 327 3.0 9.0 0.01 0.54 0.26 89 1008.9
20181209170706 44 307 3.0 9.0 0.00 0.54 0.25 90 1008.8
20181209170208 44 321 3.0 19.0 0.00 0.54 0.25 90 1008.7
20181209165706 44 317 4.0 19.0 0.00 0.54 0.25 90 1008.7
20181209165213 44 307 5.0 19.0 0.00 0.54 0.25 90 1008.6
20181209164707 44 306 4.0 11.0 0.00 0.54 0.25 90 1008.6
20181209164208 44 275 3.0 11.0 0.00 0.54 0.25 90 1008.4
20181209163707 44 316 4.0 12.0 0.00 0.54 0.25 90 1008.1
20181209163206 44 351 4.0 12.0 0.00 0.54 0.25 90 1008.0
20181209162706 44 279 4.0 12.0 0.00 0.54 0.25 89 1007.8
20181209162212 44 0 3.0 10.0 0.02 0.54 0.25 89 1007.6
20181209161709 44 287 3.0 11.0 0.02 0.54 0.25 89 1007.5
20181209161206 45 298 3.0 11.0 0.02 0.54 0.25 90 1007.3
20181209160707 45 305 4.0 11.0 0.02 0.54 0.25 90 1007.3
20181209160208 45 258 3.0 12.0 0.02 0.54 0.25 90 1007.2
20181209155706 45 319 4.0 13.0 0.02 0.54 0.25 90 1007.0
20181209155209 45 291 4.0 13.0 0.02 0.54 0.25 90 1006.7
20181209154707 45 310 4.0 13.0 0.02 0.54 0.25 89 1006.7
20181209154210 45 300 4.0 17.0 0.02 0.54 0.25 89 1006.5
20181209153706 45 267 6.0 17.0 0.02 0.54 0.25 89 1006.5
20181209153206 46 309 6.0 17.0 0.02 0.54 0.25 89 1006.4
20181209152707 46 284 3.0 12.0 0.01 0.53 0.24 89 1006.3
20181209152211 46 333 2.0 9.0 0.00 0.52 0.24 89 1006.0
20181209151706 46 316 2.0 10.0 0.00 0.52 0.24 88 1005.8
20181209151206 46 261 3.0 13.0 0.00 0.52 0.24 88 1005.6
20181209150707 46 350 4.0 13.0 0.00 0.52 0.24 88 1005.5
20181209150207 46 256 5.0 13.0 0.00 0.52 0.24 88 1005.3
20181209145708 46 292 5.0 12.0 0.00 0.52 0.24 88 1005.2
20181209145207 46 319 5.0 15.0 0.00 0.52 0.24 87 1005.0
20181209144706 46 348 6.0 16.0 0.00 0.52 0.24 87 1004.8
20181209144208 47 321 6.0 16.0 0.00 0.52 0.24 88 1004.7
20181209143706 47 349 6.0 16.0 0.00 0.52 0.24 88 1004.5
20181209143207 47 331 6.0 23.0 0.00 0.52 0.24 87 1004.4
20181209142707 47 275 6.0 23.0 0.00 0.52 0.24 87 1004.3
20181209142209 47 245 7.0 25.0 0.00 0.52 0.24 87 1004.1
20181209141706 47 232 7.0 25.0 0.00 0.52 0.24 88 1004.1
20181209141206 47 290 6.0 25.0 0.00 0.52 0.24 88 1003.9
20181209140707 47 244 5.0 12.0 0.00 0.52 0.24 89 1003.6
20181209140207 47 286 4.0 15.0 0.00 0.52 0.24 89 1003.4
20181209135707 47 298 5.0 15.0 0.00 0.52 0.24 88 1003.4
20181209135207 47 268 5.0 17.0 0.00 0.52 0.24 88 1003.2
20181209134706 47 246 5.0 17.0 0.00 0.52 0.24 88 1003.2
20181209134210 47 291 7.0 17.0 0.00 0.52 0.24 88 1003.0
20181209133706 47 286 7.0 17.0 0.00 0.52 0.24 88 1002.9
20181209133208 47 290 5.0 21.0 0.00 0.52 0.24 88 1002.8
20181209132706 47 345 6.0 21.0 0.00 0.52 0.24 88 1002.6
20181209132206 47 339 7.0 17.0 0.00 0.52 0.24 87 1002.5
20181209131709 47 192 6.0 16.0 0.00 0.52 0.24 88 1002.4
20181209131206 47 5 6.0 16.0 0.00 0.52 0.24 88 1002.3
20181209130706 47 327 6.0 16.0 0.00 0.52 0.24 88 1002.3
20181209130207 47 279 6.0 16.0 0.00 0.52 0.24 88 1002.1
20181209125711 47 238 5.0 16.0 0.00 0.52 0.24 88 1001.9
20181209125207 47 332 6.0 13.0 0.01 0.52 0.24 89 1001.9
20181209124706 47 94 6.0 13.0 0.01 0.52 0.24 89 1001.7
20181209124214 47 344 5.0 13.0 0.01 0.52 0.24 90 1001.5
20181209123709 47 263 4.0 17.0 0.01 0.52 0.24 90 1001.5
20181209123207 47 273 4.0 17.0 0.01 0.52 0.24 90 1001.3
20181209122706 47 202 5.0 17.0 0.01 0.52 0.24 90 1001.2
20181209122208 47 295 4.0 15.0 0.01 0.52 0.24 90 1001.1
20181209121706 47 261 3.0 15.0 0.01 0.52 0.24 90 1000.9
20181209121206 47 288 4.0 15.0 0.01 0.52 0.24 90 1000.9
20181209120706 47 294 3.0 9.0 0.01 0.52 0.24 90 1000.8
20181209120207 47 305 3.0 7.0 0.01 0.52 0.24 91 1000.8
20181209115707 47 292 2.0 7.0 0.01 0.52 0.24 91 1000.8
20181209115206 47 265 2.0 9.0 0.00 0.51 0.23 91 1000.6
20181209114706 46 332 2.0 9.0 0.00 0.51 0.23 91 1000.6
20181209114210 46 257 2.0 9.0 0.00 0.51 0.23 91 1000.6
20181209113706 46 292 2.0 9.0 0.00 0.51 0.23 91 1000.4
20181209113207 46 186 2.0 9.0 0.00 0.51 0.23 91 1000.2
20181209112707 46 275 2.0 10.0 0.01 0.51 0.23 91 1000.2
20181209112213 46 333 2.0 10.0 0.01 0.51 0.23 91 1000.1
20181209111708 46 217 2.0 10.0 0.01 0.51 0.23 91 999.9
20181209111206 46 292 3.0 10.0 0.01 0.51 0.23 91 999.9
20181209110708 46 206 3.0 8.0 0.01 0.51 0.23 91 999.8
20181209110207 46 288 3.0 10.0 0.01 0.51 0.23 91 999.7
20181209105711 46 289 3.0 10.0 0.01 0.51 0.23 91 999.6
20181209105210 45 261 3.0 10.0 0.01 0.51 0.23 91 999.5
20181209104706 45 317 2.0 11.0 0.01 0.51 0.23 91 999.3
20181209104210 45 323 3.0 11.0 0.01 0.51 0.23 91 999.3
20181209103707 46 320 4.0 11.0 0.01 0.51 0.23 91 999.2
20181209103206 46 312 3.0 11.0 0.01 0.50 0.22 91 999.3
20181209102706 46 221 3.0 11.0 0.02 0.50 0.22 91 999.2
20181209102213 46 325 4.0 11.0 0.02 0.50 0.22 91 999.1
20181209101710 46 306 3.0 11.0 0.03 0.50 0.22 91 999.1
20181209101206 45 269 3.0 10.0 0.04 0.50 0.22 91 999.0
20181209100707 45 324 3.0 9.0 0.05 0.50 0.22 91 998.9
20181209100207 45 273 2.0 11.0 0.05 0.50 0.22 91 998.9
20181209095706 45 323 2.0 11.0 0.06 0.50 0.22 91 998.8
20181209095208 45 351 3.0 8.0 0.06 0.50 0.22 91 998.7
20181209094706 45 323 2.0 8.0 0.07 0.50 0.22 91 998.6
20181209094207 45 286 2.0 10.0 0.08 0.50 0.22 91 998.5
20181209093706 45 327 3.0 10.0 0.08 0.50 0.22 91 998.4
20181209093207 45 262 3.0 10.0 0.08 0.50 0.21 91 998.4
20181209092706 45 251 3.0 13.0 0.08 0.49 0.20 91 998.3
20181209092209 45 75 3.0 13.0 0.07 0.48 0.20 91 998.3
20181209091708 45 282 4.0 11.0 0.07 0.47 0.19 91 998.3
20181209091208 45 342 3.0 11.0 0.06 0.46 0.17 91 998.2
20181209090708 45 314 2.0 7.0 0.06 0.46 0.17 91 998.1
20181209090210 45 251 2.0 9.0 0.05 0.46 0.17 91 998.0
20181209085709 45 274 3.0 14.0 0.05 0.46 0.16 90 998.0
20181209085208 46 254 5.0 14.0 0.04 0.45 0.16 90 998.0
20181209084707 46 293 4.0 14.0 0.03 0.44 0.15 90 997.8
20181209084210 46 289 4.0 14.0 0.02 0.43 0.14 90 997.6
20181209083707 46 281 5.0 14.0 0.02 0.43 0.14 90 997.7
20181209083209 47 9 5.0 14.0 0.02 0.43 0.13 90 997.6
20181209082707 47 340 4.0 12.0 0.03 0.42 0.13 90 997.7
20181209082209 47 265 4.0 15.0 0.03 0.42 0.12 91 997.2
20181209081709 47 313 4.0 15.0 0.03 0.42 0.12 91 997.0
20181209081208 47 278 4.0 14.0 0.03 0.42 0.12 90 996.9
20181209080709 46 200 3.0 9.0 0.04 0.43 0.12 90 996.8
20181209080210 46 220 3.0 10.0 0.04 0.43 0.12 90 996.7
20181209075707 46 150 3.0 10.0 0.04 0.43 0.12 90 996.5
20181209075207 46 219 3.0 8.0 0.04 0.43 0.12 90 996.6
20181209074708 46 248 3.0 14.0 0.04 0.44 0.12 90 996.5
20181209074209 46 250 4.0 14.0 0.04 0.44 0.12 90 996.6
20181209073708 47 344 4.0 14.0 0.03 0.43 0.11 90 996.5
20181209073209 47 289 4.0 11.0 0.02 0.43 0.09 90 996.4
20181209072707 47 279 3.0 12.0 0.02 0.43 0.09 90 996.3
20181209072209 47 286 4.0 12.0 0.01 0.42 0.09 89 996.3
20181209071707 47 149 4.0 16.0 0.01 0.43 0.09 89 996.2
20181209071208 47 261 4.0 16.0 0.01 0.43 0.08 90 996.0
20181209070708 47 240 4.0 16.0 0.01 0.43 0.08 90 995.9
20181209070210 47 228 5.0 14.0 0.01 0.44 0.08 90 995.9
20181209065708 47 188 4.0 16.0 0.01 0.46 0.08 90 995.7
20181209065209 47 115 4.0 16.0 0.01 0.46 0.08 90 995.7
20181209064707 47 300 4.0 16.0 0.01 0.46 0.08 90 995.5
20181209064209 47 188 3.0 9.0 0.01 0.46 0.08 90 995.5
20181209063708 47 221 3.0 13.0 0.02 0.47 0.08 90 995.5
20181209063210 47 227 4.0 14.0 0.02 0.47 0.08 90 995.4
20181209062707 47 204 4.0 17.0 0.02 0.47 0.08 89 995.4
20181209062209 47 214 5.0 17.0 0.02 0.47 0.08 89 995.2
20181209061707 47 198 5.0 17.0 0.01 0.46 0.07 89 995.2
20181209061208 47 293 4.0 17.0 0.01 0.46 0.07 89 995.1
20181209060708 47 207 4.0 17.0 0.02 0.46 0.07 89 994.9
20181209060210 47 138 4.0 17.0 0.02 0.46 0.07 90 995.0
20181209055707 47 202 5.0 17.0 0.02 0.46 0.07 89 994.9
20181209055208 47 78 6.0 15.0 0.02 0.46 0.07 90 994.8
20181209054707 47 115 5.0 15.0 0.02 0.46 0.07 90 994.7
20181209054209 47 287 4.0 15.0 0.02 0.46 0.07 90 994.6
20181209053709 47 161 4.0 15.0 0.01 0.46 0.06 90 994.6
20181209053209 47 265 4.0 13.0 0.01 0.46 0.06 90 994.5
20181209052708 47 212 4.0 13.0 0.01 0.46 0.06 90 994.4
20181209052209 47 225 4.0 15.0 0.01 0.46 0.06 90 994.4
20181209051708 47 227 4.0 15.0 0.01 0.46 0.06 90 994.4
20181209051208 47 201 4.0 13.0 0.01 0.46 0.06 90 994.4
20181209050707 47 234 4.0 13.0 0.01 0.45 0.06 89 994.3
20181209050209 47 211 4.0 11.0 0.01 0.45 0.06 89 994.4
20181209045707 47 248 3.0 18.0 0.01 0.45 0.06 89 994.2
20181209045208 47 200 5.0 22.0 0.01 0.45 0.06 89 994.2
20181209044709 47 242 6.0 22.0 0.01 0.45 0.06 89 994.2
20181209044208 47 200 6.0 22.0 0.01 0.45 0.06 89 994.2
20181209043707 47 208 6.0 18.0 0.01 0.45 0.06 88 994.1
20181209043208 47 213 6.0 17.0 0.01 0.45 0.06 88 994.0
20181209042707 47 246 5.0 17.0 0.01 0.45 0.06 88 994.0
20181209042208 47 119 5.0 17.0 0.01 0.45 0.06 88 994.1
20181209041708 47 93 5.0 17.0 0.01 0.45 0.06 88 994.0
20181209041208 47 162 5.0 18.0 0.00 0.44 0.05 88 993.9
20181209040708 47 223 4.0 18.0 0.00 0.44 0.05 88 993.9
20181209040208 47 165 4.0 17.0 0.00 0.44 0.05 88 993.8
20181209035711 47 204 5.0 17.0 0.00 0.44 0.05 88 993.8
20181209035208 48 153 5.0 12.0 0.00 0.44 0.05 88 993.8
20181209034707 48 139 5.0 13.0 0.00 0.44 0.05 88 993.8
20181209034207 48 219 5.0 16.0 0.00 0.44 0.05 87 993.6
20181209033706 48 252 5.0 16.0 0.00 0.44 0.05 87 993.5
20181209033207 48 219 5.0 16.0 0.00 0.44 0.05 87 993.6
20181209032706 48 154 4.0 16.0 0.00 0.44 0.05 87 993.6
20181209032206 48 292 5.0 16.0 0.00 0.44 0.05 87 993.4
20181209031706 48 323 5.0 16.0 0.00 0.44 0.05 87 993.6
20181209031206 48 200 5.0 17.0 0.00 0.44 0.05 88 993.5
20181209030706 47 215 5.0 20.0 0.00 0.44 0.05 88 993.5
20181209030207 47 86 5.0 20.0 0.00 0.44 0.05 88 993.5
20181209025706 47 232 5.0 20.0 0.00 0.44 0.05 88 993.5
20181209025206 47 345 4.0 13.0 0.00 0.44 0.05 88 993.7
20181209024706 47 290 3.0 13.0 0.00 0.44 0.05 89 993.5
20181209024206 47 192 4.0 13.0 0.00 0.44 0.05 89 993.6
20181209023706 47 289 4.0 16.0 0.01 0.44 0.05 89 993.6
20181209023212 47 350 4.0 17.0 0.01 0.44 0.05 89 993.5
20181209022706 47 224 5.0 17.0 0.01 0.44 0.05 89 993.5
20181209022207 47 269 5.0 17.0 0.01 0.44 0.05 89 993.5
20181209021706 47 237 5.0 16.0 0.01 0.45 0.05 89 993.5
20181209021206 47 223 5.0 16.0 0.02 0.45 0.05 89 993.5
20181209020706 47 41 5.0 16.0 0.02 0.46 0.05 89 993.3
20181209020207 47 175 6.0 16.0 0.02 0.46 0.05 89 993.4
20181209015706 47 221 5.0 12.0 0.02 0.46 0.05 89 993.5
20181209015206 47 259 5.0 17.0 0.02 0.46 0.05 89 993.4
20181209014706 47 0 5.0 17.0 0.02 0.46 0.05 89 993.4
20181209014207 47 219 5.0 17.0 0.01 0.46 0.04 89 993.4
20181209013706 47 257 6.0 20.0 0.01 0.46 0.04 89 993.3
20181209013206 47 254 5.0 20.0 0.01 0.46 0.04 89 993.2
20181209012706 47 250 5.0 20.0 0.01 0.46 0.04 89 993.2
20181209012207 47 253 5.0 17.0 0.01 0.46 0.04 88 993.2
20181209011706 47 163 4.0 17.0 0.01 0.46 0.04 88 993.1
20181209011206 48 216 4.0 17.0 0.00 0.46 0.03 88 993.2
20181209010706 47 242 5.0 17.0 0.00 0.46 0.03 88 993.1
20181209010206 47 262 5.0 14.0 0.00 0.46 0.03 89 993.0
20181209005706 47 226 5.0 17.0 0.00 0.46 0.03 89 993.0
20181209005206 47 249 5.0 17.0 0.00 0.46 0.03 89 993.1
20181209004706 47 284 4.0 17.0 0.00 0.46 0.03 89 992.9
20181209004207 47 283 4.0 12.0 0.01 0.46 0.03 89 993.0
20181209003706 47 284 4.0 17.0 0.01 0.46 0.03 89 993.1
20181209003207 47 38 5.0 17.0 0.01 0.46 0.03 89 993.0